Location: Shenandoah County Park
(38.9356°N, 78.4524°W)
Time: 18:21:45
(UTC-04:00)

Explorer 11/Cluster Stage 4 - Pass Details

Date: 03 March 2024
Orbit: 465 x 1219 km, 28.8° (Epoch: 21 April)

Event Time Altitude Azimuth Distance (km) Brightness Sun altitude
Rises 00:56:33 0° 258° (WSW) 4,004 - -56.9°
Reaches altitude 10° 00:59:31 10° 251° (WSW) 3,103 - -56.8°
Maximum altitude 01:06:40 38° 187° (S) 1,775 - -56.4°
Drops below altitude 10° 01:13:50 10° 123° (ESE) 3,114 - -55.9°
Sets 01:16:50 0° 116° (ESE) 4,020 - -55.7°
